User: anonymous   Login
Location: Lake Almanor
(40.2485°N, 121.1442°W)
Time: 04:14:00
(UTC-07:00)
Language:

STARLINK-1114 - Orbit

View from above orbital plane
View from above orbital plane
View from above satellite
View from above satellite

Ground track
Ground track

The orbit data is extracted from the following two-line orbital elements,

1 44927U 20001P   20089.25001157  .00125738  00000-0  85068-2 0  9994
2 44927  53.0021  14.5785 0002116  54.8598 171.1019 15.05533222 12582
Epoch (UTC): 29 March 2020 06:00:01
Eccentricity: 0.0002116
inclination: 53.0021°
perigee height: 548 km
apogee height: 551 km
right ascension of ascending node: 14.5785°
argument of perigee: 54.8598°
revolutions per day: 15.05533222
mean anomaly at epoch: 171.1019°
orbit number at epoch: 1258

The dashed part of the orbit path shows where the satellite is in the earth's shadow,  

DLR